TRPR62 YBOK-YENO

Flight info

Callsign TRPR62
Flight time 0h 32m
Altitude 3500
Route VFR
Aircraft H60/L-G/1200

Departure

Time 2026-04-23 05:14
Airport Oakey Army Aviation Centre (YBOK)

Arrival

Time 2026-04-23 05:46
Airport Enoggera Barracks (YENO)
Time Latitude Longitude Altitude Speed Heading
2026-04-23 05:12 -27.41338 151.73252 1332 ft 0 kts 281°
2026-04-23 05:13 -27.41330 151.73254 1355 ft 10 kts 63°
2026-04-23 05:13 -27.41324 151.73267 1333 ft 0 kts 46°
2026-04-23 05:13 -27.41297 151.73282 1334 ft 8 kts 17°
2026-04-23 05:14 -27.41209 151.73358 1336 ft 9 kts 109°
2026-04-23 05:14 -27.41246 151.73571 1546 ft 58 kts 104°
2026-04-23 05:14 -27.41342 151.74249 1974 ft 112 kts 104°
2026-04-23 05:14 -27.41133 151.75224 2213 ft 141 kts 83°
2026-04-23 05:15 -27.40916 151.76286 2343 ft 134 kts 89°
2026-04-23 05:15 -27.40572 151.77231 2587 ft 129 kts 85°
2026-04-23 05:15 -27.40288 151.78251 2692 ft 135 kts 92°
2026-04-23 05:15 -27.40026 151.79142 3457 ft 103 kts 84°
2026-04-23 05:16 -27.39991 151.79860 4111 ft 85 kts 102°
2026-04-23 05:16 -27.39998 151.80635 3691 ft 122 kts 98°
2026-04-23 05:16 -27.40032 151.81630 3564 ft 123 kts 98°
2026-04-23 05:16 -27.40062 151.82589 3564 ft 122 kts 99°
2026-04-23 05:17 -27.40089 151.83529 3579 ft 118 kts 100°
2026-04-23 05:17 -27.40109 151.84446 3589 ft 116 kts 100°
2026-04-23 05:17 -27.40131 151.85386 3590 ft 123 kts 99°
2026-04-23 05:17 -27.40159 151.86351 3582 ft 126 kts 98°
2026-04-23 05:18 -27.40195 151.87336 3573 ft 124 kts 98°
2026-04-23 05:18 -27.40228 151.88281 3566 ft 119 kts 99°
2026-04-23 05:18 -27.40266 151.89227 3560 ft 120 kts 100°
2026-04-23 05:18 -27.40308 151.90177 3574 ft 123 kts 100°
2026-04-23 05:19 -27.40355 151.91140 3573 ft 125 kts 99°
2026-04-23 05:19 -27.40405 151.92098 3575 ft 123 kts 100°
2026-04-23 05:19 -27.40460 151.93063 3574 ft 124 kts 100°
2026-04-23 05:19 -27.40505 151.93714 3574 ft 126 kts 101°
2026-04-23 05:20 -27.40585 151.94696 3537 ft 128 kts 101°
2026-04-23 05:20 -27.40671 151.95692 3553 ft 127 kts 101°
2026-04-23 05:20 -27.40779 151.96993 3582 ft 125 kts 101°
2026-04-23 05:20 -27.40865 151.97952 3575 ft 121 kts 101°
2026-04-23 05:21 -27.40928 151.98912 3568 ft 124 kts 101°
2026-04-23 05:21 -27.40970 151.99551 3577 ft 122 kts 101°
2026-04-23 05:21 -27.41035 152.00510 3575 ft 123 kts 101°
2026-04-23 05:21 -27.41121 152.01500 3572 ft 128 kts 101°
2026-04-23 05:22 -27.41200 152.02483 3571 ft 124 kts 101°
2026-04-23 05:22 -27.41281 152.03447 3570 ft 123 kts 101°
2026-04-23 05:22 -27.41370 152.04404 3570 ft 123 kts 99°
2026-04-23 05:22 -27.41494 152.05361 3567 ft 124 kts 97°
2026-04-23 05:23 -27.41620 152.06319 3575 ft 119 kts 102°
2026-04-23 05:23 -27.41684 152.07165 3583 ft 101 kts 102°
2026-04-23 05:23 -27.41726 152.08034 3568 ft 128 kts 101°
2026-04-23 05:23 -27.41772 152.09042 3579 ft 125 kts 98°
2026-04-23 05:24 -27.41817 152.10024 3559 ft 126 kts 98°
2026-04-23 05:24 -27.41852 152.11002 3569 ft 125 kts 96°
2026-04-23 05:24 -27.41873 152.11964 3568 ft 124 kts 97°
2026-04-23 05:24 -27.41872 152.12935 3572 ft 124 kts 96°
2026-04-23 05:25 -27.41834 152.13912 3579 ft 126 kts 94°
2026-04-23 05:25 -27.41802 152.14903 3574 ft 127 kts 94°
2026-04-23 05:25 -27.41800 152.15909 3575 ft 129 kts 94°
2026-04-23 05:25 -27.41789 152.16917 3573 ft 127 kts 94°
2026-04-23 05:26 -27.41753 152.17917 3564 ft 130 kts 94°
2026-04-23 05:26 -27.41710 152.18905 3566 ft 126 kts 94°
2026-04-23 05:26 -27.41662 152.19894 3566 ft 127 kts 94°
2026-04-23 05:26 -27.41622 152.20884 3571 ft 126 kts 94°
2026-04-23 05:27 -27.41577 152.21871 3573 ft 126 kts 94°
2026-04-23 05:27 -27.41545 152.22866 3572 ft 128 kts 94°
2026-04-23 05:27 -27.41503 152.23851 3568 ft 124 kts 94°
2026-04-23 05:27 -27.41428 152.24817 3564 ft 124 kts 94°
2026-04-23 05:28 -27.41364 152.25780 3569 ft 123 kts 94°
2026-04-23 05:28 -27.41305 152.26759 3572 ft 126 kts 94°
2026-04-23 05:28 -27.41280 152.27744 3572 ft 126 kts 95°
2026-04-23 05:28 -27.41261 152.28751 3572 ft 127 kts 95°
2026-04-23 05:29 -27.41230 152.29724 3561 ft 123 kts 95°
2026-04-23 05:29 -27.41188 152.30688 3570 ft 123 kts 96°
2026-04-23 05:29 -27.41151 152.31639 3573 ft 126 kts 96°
2026-04-23 05:29 -27.41128 152.32622 3571 ft 126 kts 96°
2026-04-23 05:30 -27.41112 152.33598 3575 ft 123 kts 96°
2026-04-23 05:30 -27.41098 152.34584 3574 ft 125 kts 96°
2026-04-23 05:30 -27.41077 152.35560 3573 ft 124 kts 96°
2026-04-23 05:30 -27.41044 152.36534 3569 ft 124 kts 96°
2026-04-23 05:31 -27.41022 152.37507 3567 ft 125 kts 96°
2026-04-23 05:31 -27.41005 152.38488 3568 ft 125 kts 96°
2026-04-23 05:31 -27.40989 152.39466 3569 ft 123 kts 96°
2026-04-23 05:31 -27.40955 152.40427 3572 ft 122 kts 96°
2026-04-23 05:32 -27.40920 152.41383 3574 ft 121 kts 96°
2026-04-23 05:32 -27.40890 152.42342 3571 ft 123 kts 96°
2026-04-23 05:32 -27.40880 152.43329 3568 ft 126 kts 96°
2026-04-23 05:32 -27.40871 152.44317 3567 ft 128 kts 96°
2026-04-23 05:33 -27.40860 152.45305 3566 ft 124 kts 96°
2026-04-23 05:33 -27.40844 152.46265 3568 ft 123 kts 97°
2026-04-23 05:33 -27.40825 152.47223 3561 ft 121 kts 97°
2026-04-23 05:33 -27.40805 152.48184 3562 ft 125 kts 97°
2026-04-23 05:34 -27.40812 152.49169 3565 ft 125 kts 99°
2026-04-23 05:34 -27.40830 152.50144 3566 ft 124 kts 100°
2026-04-23 05:34 -27.40856 152.51114 3565 ft 124 kts 100°
2026-04-23 05:34 -27.40887 152.52083 3561 ft 126 kts 101°
2026-04-23 05:35 -27.40923 152.53060 3567 ft 125 kts 101°
2026-04-23 05:35 -27.40965 152.54036 3569 ft 126 kts 101°
2026-04-23 05:35 -27.41012 152.55017 3568 ft 125 kts 102°
2026-04-23 05:35 -27.41067 152.56009 3570 ft 128 kts 101°
2026-04-23 05:36 -27.41128 152.57006 3568 ft 127 kts 102°
2026-04-23 05:36 -27.41188 152.57967 3568 ft 124 kts 102°
2026-04-23 05:36 -27.41250 152.58930 3569 ft 123 kts 101°
2026-04-23 05:36 -27.41316 152.59884 3569 ft 122 kts 102°
2026-04-23 05:37 -27.41387 152.60842 3564 ft 123 kts 102°
2026-04-23 05:37 -27.41463 152.61797 3567 ft 123 kts 102°
2026-04-23 05:37 -27.41547 152.62769 3566 ft 126 kts 102°
2026-04-23 05:37 -27.41638 152.63749 3566 ft 126 kts 104°
2026-04-23 05:38 -27.41731 152.64727 3567 ft 125 kts 105°
2026-04-23 05:38 -27.41825 152.65695 3555 ft 124 kts 105°
2026-04-23 05:38 -27.41924 152.66662 3566 ft 124 kts 104°
2026-04-23 05:38 -27.42027 152.67629 3566 ft 124 kts 105°
2026-04-23 05:39 -27.42134 152.68594 3564 ft 124 kts 104°
2026-04-23 05:39 -27.42244 152.69552 3564 ft 124 kts 104°
2026-04-23 05:39 -27.42359 152.70510 3565 ft 123 kts 105°
2026-04-23 05:39 -27.42478 152.71466 3561 ft 123 kts 105°
2026-04-23 05:40 -27.42598 152.72411 3564 ft 122 kts 105°
2026-04-23 05:40 -27.42726 152.73365 3563 ft 124 kts 106°
2026-04-23 05:40 -27.42861 152.74329 3562 ft 124 kts 107°
2026-04-23 05:40 -27.42998 152.75278 3561 ft 124 kts 107°
2026-04-23 05:41 -27.43141 152.76239 3559 ft 125 kts 107°
2026-04-23 05:41 -27.43289 152.77200 3566 ft 124 kts 108°
2026-04-23 05:41 -27.43445 152.78169 3565 ft 126 kts 108°
2026-04-23 05:41 -27.43605 152.79139 3563 ft 127 kts 109°
2026-04-23 05:42 -27.43708 152.80132 3564 ft 127 kts 103°
2026-04-23 05:42 -27.43744 152.81127 3561 ft 128 kts 99°
2026-04-23 05:42 -27.43684 152.82128 3564 ft 128 kts 94°
2026-04-23 05:42 -27.43589 152.83123 3567 ft 128 kts 94°
2026-04-23 05:43 -27.43517 152.84122 3569 ft 129 kts 95°
2026-04-23 05:43 -27.43452 152.85153 3749 ft 132 kts 97°
2026-04-23 05:43 -27.43387 152.86160 3395 ft 125 kts 97°
2026-04-23 05:43 -27.43326 152.87161 3405 ft 126 kts 97°
2026-04-23 05:44 -27.43324 152.88236 2916 ft 148 kts 100°
2026-04-23 05:44 -27.43363 152.89302 2774 ft 121 kts 100°
2026-04-23 05:44 -27.43398 152.90274 3014 ft 125 kts 102°
2026-04-23 05:44 -27.43413 152.91251 3172 ft 126 kts 98°
2026-04-23 05:45 -27.43354 152.92257 3001 ft 129 kts 97°
2026-04-23 05:45 -27.43229 152.93196 2598 ft 120 kts 88°
2026-04-23 05:45 -27.42943 152.94054 2322 ft 114 kts 79°
2026-04-23 05:45 -27.42627 152.94855 2145 ft 110 kts 78°
2026-04-23 05:46 -27.42323 152.95624 1771 ft 121 kts 81°
2026-04-23 05:46 -27.42353 152.96379 1625 ft 74 kts 121°
2026-04-23 05:46 -27.42535 152.96769 1522 ft 37 kts 117°
2026-04-23 05:46 -27.42698 152.97158 1298 ft 87 kts 118°
2026-04-23 05:47 -27.42960 152.97923 1091 ft 113 kts 124°
2026-04-23 05:47 -27.43469 152.98545 1019 ft 106 kts 171°
2026-04-23 05:47 -27.44080 152.98371 1019 ft 95 kts 252°
2026-04-23 05:47 -27.44007 152.97687 1128 ft 101 kts 322°
2026-04-23 05:48 -27.43385 152.97065 983 ft 121 kts 326°
2026-04-23 05:48 -27.42801 152.96519 1037 ft 97 kts 327°
2026-04-23 05:48 -27.42314 152.96318 923 ft 62 kts 51°
2026-04-23 05:48 -27.42321 152.96753 787 ft 67 kts 129°
2026-04-23 05:49 -27.42620 152.97046 471 ft 43 kts 129°
2026-04-23 05:49 -27.42730 152.97135 313 ft 12 kts 122°
2026-04-23 05:49 -27.42756 152.97163 229 ft 1 kts 141°
2026-04-23 05:49 -27.42754 152.97162 228 ft 0 kts 140°